User: anonymous   Login
Location: Boullarre
(49.1305°N, 3.0047°E)
Time: 19:01:50
(UTC+00:00)
Language:

Cosmos 2322 Rocket - Orbit

View from above orbital plane
View from above orbital plane
View from above satellite
View from above satellite

Ground track
Ground track

The orbit data is extracted from the following two-line orbital elements,

1 23705U 95058B   23153.71280712  .00000240  00000-0  14751-3 0  9993
2 23705  71.0205 142.3228 0014022 226.8861 133.1089 14.15234054424800
Epoch (UTC): 02 June 2023 17:06:26
Eccentricity: 0.0014022
inclination: 71.0205°
perigee height: 831 km
apogee height: 851 km
right ascension of ascending node: 142.3228°
argument of perigee: 226.8861°
revolutions per day: 14.15234054
mean anomaly at epoch: 133.1089°
orbit number at epoch: 42480

The dashed part of the orbit path shows where the satellite is in the earth's shadow,  

DLR